Newport News Williamsburg International Airport Newport News US
ICAO: KPHF
IATA: PHF
Category: Large
Scheduled Services: Yes

Elevation: 42 ft
TransAlt. 18000 ft.

Airport Communications:
NORFOLK APP:125.7
ATIS:128.65
CLNC DEL:121.65
CTAF:118.7
NORFOLK DEP:124.9
GND:121.9
LEESBURG RDO:122.65
TWR:124.9
UNICOM:122.95

KPHF Zoom In..

If you have problems with the map follow the link
https://www.worldairports.se/pages/airport.php?
ICAO=KPHF

Runways:

(A) RW 02 length 6526 ft width 150 ft
LOC 109.30 / hdg 22

(B) RW 07 length 8003 ft width 150 ft
ILS 110.10 / hdg 67

(C) RW 20 length 6526 ft width 150 ft
LOC 109.30 / hdg 202

(D) RW 25 length 8003 ft width 150 ft
ILS 110.10 / hdg 247

Location; KPHF
Day. 24 / Time. 10.54 Zulu
* Altimeter: 30.32
* Temperature: -01° c. -30.2°f.
* Wind from: 000° Speed 00 kn.
Dewpoint: -03° c.
Visibility: 10 Statute Miles.
Clouds: Clear (automated report).

KPHF 241054Z 00000KT 10SM CLR M01/M03 A3032 RMK AO2 SLP268 T10111028


Wind - Calm.

 
 
jpsmedia.com for Web Design worldairports.se 2019   terms of use